Simultaneous Nadir Overpasses (SNOs) Predictions

Prediction of SNOs between FY3D and METOP-C Satellite Orbit:

Table of predicted SNOs for the next 14.0 days since TLE Epoch: 3/26/2022
Index Date (FY3D) Time (FY3D) Lat,Lon (FY3D) SZA (FY3D ) Date (METOP-C) Time (METOP-C) Lat,Lon (METOP-C) SZA (METOP-C ) Distance(km) Time Diff (sec)
1 04/04/2022 19:10:12 -74.55, 65.25 111.29 04/04/2022 19:11:18 -74.51, 68.31 111.44 90.87 66
2 04/04/2022 20:00:54 74.32,-126.83 68.45 04/04/2022 20:02:03 74.27,-124.97 68.33 56.35 69
3 04/04/2022 20:51:36 -74.19, 40.82 111.71 04/04/2022 20:52:47 -74.15, 42.04 111.80 37.52 71
4 04/04/2022 21:42:18 73.96,-151.29 68.03 04/04/2022 21:43:31 73.96,-151.09 68.01 5.94 73
5 04/04/2022 22:33:02 -73.93, 16.10 112.02 04/04/2022 22:34:13 -73.93, 16.16 112.03 1.95 71
6 04/04/2022 23:23:48 73.89,-176.49 67.93 04/04/2022 23:24:54 73.89,-176.60 67.92 3.37 66
7 04/05/2022 00:14:33 -73.91, -9.23 112.07 04/05/2022 00:15:35 -73.91, -9.22 112.08 0.06 62
8 04/05/2022 01:05:20 73.92, 158.06 67.93 04/05/2022 01:06:15 73.92, 158.13 67.92 2.17 55
9 04/05/2022 01:56:04 -73.89, -34.55 112.12 04/05/2022 01:56:57 -73.89, -34.61 112.13 1.84 53
10 04/05/2022 02:46:51 73.90, 132.73 67.88 04/05/2022 02:47:37 73.90, 132.74 67.87 0.29 46
11 04/05/2022 03:37:36 -73.92, -60.00 112.12 04/05/2022 03:38:18 -73.92, -59.88 112.13 3.66 42
12 04/05/2022 04:28:22 73.87, 107.40 67.83 04/05/2022 04:28:59 73.88, 107.35 67.83 1.60 37
13 04/05/2022 05:19:07 -73.89, -85.33 112.17 04/05/2022 05:19:40 -73.90, -85.27 112.17 1.78 33
14 04/05/2022 06:09:53 73.85, 82.07 67.78 04/05/2022 06:10:21 73.86, 81.96 67.78 3.47 28
15 04/05/2022 07:00:37 -73.87,-110.66 112.22 04/05/2022 07:01:01 -73.88,-110.66 112.22 0.29 24
16 04/05/2022 07:51:24 73.88, 56.62 67.78 04/05/2022 07:51:41 73.88, 56.69 67.78 2.08 17
17 04/05/2022 08:42:08 -73.85,-135.99 112.27 04/05/2022 08:42:23 -73.85,-136.05 112.26 2.02 15
18 04/05/2022 09:32:55 73.86, 31.30 67.73 04/05/2022 09:33:03 73.86, 31.30 67.74 0.38 8
19 04/05/2022 10:23:40 -73.88,-161.44 112.26 04/05/2022 10:23:44 -73.88,-161.32 112.26 3.52 4
20 04/05/2022 11:14:26 73.84, 5.97 67.69 04/05/2022 11:14:25 73.84, 5.91 67.69 1.73 1
21 04/05/2022 12:05:11 -73.86, 173.23 112.31 04/05/2022 12:05:06 -73.86, 173.29 112.31 1.69 5
22 04/05/2022 12:55:57 73.82, -19.36 67.64 04/05/2022 12:55:47 73.82, -19.48 67.64 3.58 10
23 04/05/2022 13:46:42 -73.84, 147.91 112.36 04/05/2022 13:46:28 -73.84, 147.90 112.36 0.61 14
24 04/05/2022 14:37:29 73.85, -44.81 67.64 04/05/2022 14:37:08 73.85, -44.75 67.64 2.04 21
25 04/05/2022 15:28:13 -73.82, 122.58 112.41 04/05/2022 15:27:50 -73.82, 122.51 112.40 2.22 23
26 04/05/2022 16:19:00 73.83, -70.14 67.59 04/05/2022 16:18:30 73.83, -70.14 67.60 0.60 30
27 04/05/2022 17:09:45 -73.84, 97.13 112.41 04/05/2022 17:09:11 -73.85, 97.24 112.40 3.43 34
28 04/05/2022 18:00:31 73.80, -95.47 67.54 04/05/2022 17:59:52 73.81, -95.53 67.55 1.87 39
29 04/05/2022 18:51:16 -73.82, 71.80 112.46 04/05/2022 18:50:33 -73.83, 71.85 112.45 1.67 43
30 04/05/2022 19:42:02 73.78,-120.80 67.49 04/05/2022 19:41:14 73.79,-120.91 67.51 3.68 48
31 04/05/2022 20:32:47 -73.80, 46.47 112.51 04/05/2022 20:31:55 -73.81, 46.46 112.49 0.91 52
32 04/05/2022 21:23:34 73.81,-146.25 67.49 04/05/2022 21:22:35 73.82,-146.19 67.51 2.06 59
33 04/05/2022 22:14:18 -73.78, 21.14 112.56 04/05/2022 22:13:17 -73.79, 21.07 112.54 2.42 61
34 04/05/2022 23:05:05 73.79,-171.58 67.44 04/05/2022 23:03:57 73.80,-171.57 67.46 0.83 68
35 04/05/2022 23:55:50 -73.81, -4.31 112.55 04/05/2022 23:54:38 -73.82, -4.20 112.54 3.38 72
36 04/06/2022 00:46:34 73.67, 163.33 67.29 04/06/2022 00:45:21 73.68, 162.80 67.32 16.56 73
37 04/06/2022 01:37:17 -73.59, -29.16 112.81 04/06/2022 01:36:04 -73.60, -30.06 112.77 28.00 73
38 04/06/2022 02:27:58 73.30, 138.81 66.87 04/06/2022 02:26:50 73.31, 136.62 66.96 70.01 68
39 04/06/2022 03:18:41 -73.22, -53.70 113.23 04/06/2022 03:17:33 -73.23, -56.23 113.13 81.25 68



Historial Predications of SNOs between FY3D and METOP-C
